{"data":{"norad_id":51468,"intl_designator":"2022-010N","name":"STARLINK-3174","alt_names":[],"object_type":"PAYLOAD","status":"ACTIVE","operator":null,"country":"US","launch_date":"2022-02-03","launch_site_code":"AFETR","launch_vehicle":null,"mission":null,"orbit_class":"UNKNOWN","rcs_meters":null,"size_class":null,"mass_kg":null,"dimensions":null,"purposes":["comms"],"wikipedia_slug":null,"has_3d_model":false,"image_url":null,"decayed_at":null,"tle_current":{"epoch":"2026-05-25T02:51:15.228864Z","epoch_age_seconds":71755,"freshness":"FRESH","line1":"1 51468U 22010N   26145.11892626 -.00000004  00000+0  17843-4 0  9993","line2":"2 51468  53.2132 295.9768 0001393  92.9760 267.1392 15.08832784238051","mean_motion":15.08832784,"eccentricity":0.0001393,"inclination_deg":53.2132,"raan_deg":295.9768,"arg_perigee_deg":92.976,"mean_anomaly_deg":267.1392,"bstar":1.7843e-5,"rev_number":23805,"period_min":95.438011108327,"perigee_km":538.80178166655,"apogee_km":540.72910928786,"semimajor_km":6917.9024454772,"source":"CELESTRAK","updated_at":"2026-05-25T13:38:16.918959Z"}}}